SCP
0 0 0 0 0 0 0 0 0 1 1 2 3 5 7 8 8 8 6 5 6 5 4 4 4 4 4 4 4 3 4 4 5 6 5 3 2 2 2 2 2 1 1 1
0 0 0 0 0 0 0 0 1 2 2 3 4 5 7 8 8 7 5 5 5 5 4 4 3 4 4 4 3 3 3 4 4 4 4 3 2 2 2 2 2 1 1 1
0 0 0 0 0 0 1 1 1 2 3 5 6 6 7 8 8 7 6 5 5 5 4 4 4 4 4 3 2 2 2 3 3 3 3 2 2 2 2 2 2 1 1 0
0 0 0 0 0 1 2 2 3 4 5 6 8 9 9 9 9 9 8 7 6 5 4 5 5 5 4 3 2 2 3 3 3 3 10 15 10 2 2 2 1 1 0 0
0 0 0 1 1 2 3 4 5 5 6 7 9 9 8 8 8 8 8 7 6 5 5 5 5 5 4 3 2 2 3 2 2 3 16 28 15 2 2 2 1 1 0 0
0 0 1 1 2 2 3 4 5 6 7 7 7 7 6 6 6 6 6 6 6 6 6 6 5 4 3 3 2 2 2 2 2 3 11 16 10 2 2 1 1 0 0 0
0 1 1 2 3 2 2 3 4 6 7 7 7 6 5 5 5 5 6 6 6 6 7 8 6 4 3 3 2 2 2 2 3 3 3 3 2 2 1 1 1 0 0 0
0 1 2 4 4 3 2 3 5 7 9 9 8 7 7 7 7 8 8 8 7 6 7 9 9 6 4 3 2 3 3 4 4 3 3 3 2 2 1 1 1 0 0 0
1 1 2 4 5 4 4 4 6 9 10 10 9 8 8 9 10 10 9 8 6 5 6 8 10 8 5 2 2 4 5 5 5 4 3 2 2 1 1 0 0 0 0 0
3 2 3 4 4 5 5 6 8 10 11 10 8 7 7 9 9 9 8 6 5 4 4 6 7 6 4 2 3 5 6 6 5 4 3 2 1 1 1 0 0 0 0 0
3 3 3 4 4 5 5 6 8 12 12 10 8 7 8 8 8 7 7 6 5 4 3 3 3 3 3 3 4 6 7 6 5 3 2 1 0 0 0 0 0 0 0 0
2 3 3 4 5 5 5 5 9 12 12 10 10 10 10 10 9 8 7 6 5 4 3 2 2 2 2 3 4 5 6 5 3 2 1 0 0 0 0 0 0 0 0 0
2 3 4 5 5 5 5 6 8 10 10 9 10 10 10 10 9 8 6 5 4 4 3 2 1 1 1 2 3 4 4 3 1 1 0 0 0 0 0 0 0 0 0 0
2 3 4 5 5 5 6 7 8 8 7 7 6 7 7 7 6 5 5 4 3 3 2 1 1 1 1 1 2 2 2 1 1 1 0 0 0 0 0 0 0 0 0 0
3 4 5 5 5 6 7 7 6 5 4 3 3 3 3 3 3 3 3 3 3 2 2 1 1 1 1 1 2 1 1 0 0 0 0 0 0 0 0 0 0 0 0 0
3 4 5 5 6 6 6 6 4 3 2 2 2 1 1 1 1 2 3 3 3 2 1 1 1 1 1 1 1 1 1 0 0 0 0 0 0 0 0 0 0 0 0 0
4 4 4 5 5 5 4 4 3 2 1 1 1 1 1 1 1 2 2 2 2 1 1 1 1 0 1 1 1 1 1 0 0 0 0 0 0 0 0 0 0 0 0 0
3 3 3 3 4 3 3 2 2 2 1 1 1 1 1 1 2 2 2 1 1 0 0 0 0 0 0 0 0 0 0 0 0 0 0 0 0 0 0 0 0 0 0 0
2 2 2 2 2 2 2 1 2 2 2 1 1 1 1 2 2 2 1 1 0 0 0 0 0 0 0 0 0 0 0 0 0 0 0 0 0 0 0 0 0 0 0 0
2 3 3 2 2 1 1 1 2 2 2 2 2 1 1 1 1 1 1 0 0 0 0 0 0 0 0 0 0 0 0 0 0 0 0 0 0 0 0 0 0 0 0 0
3 3 3 2 1 1 1 1 2 2 2 2 2 2 1 1 1 1 1 0 0 0 0 0 0 0 0 0 0 0 0 0 0 0 0 0 0 0 0 0 0 0 0 0
2 2 2 1 1 1 1 2 3 3 3 2 2 2 1 1 1 1 0 0 0 0 0 0 0 0 0 0 0 0 0 0 0 0 0 0 0 0 0 0 0 0 0 0
1 1 1 1 1 1 1 3 3 3 3 2 2 2 1 1 1 1 0 0 0 0 0 0 0 0 0 0 0 0 0 0 0 0 0 0 0 0 0 0 0 0 0 0
1 1 1 1 1 1 1 2 3 2 2 2 1 1 1 1 1 0 0 0 0 0 0 0 0 0 0 0 0 0 0 0 0 0 0 0 0 0 0 0 0 0 0 0
0 0 1 1 0 0 1 1 1 1 1 1 1 1 1 1 0 0 0 0 0 0 0 0 0 0 0 0 0 0 0 0 0 0 0 0 0 0 0 0 0 0 0 0
0 0 0 0 0 0 0 1 1 1 1 1 1 0 0 0 0 0 0 0 0 0 0 0 0 0 0 0 0 0 0 0 0 0 0 0 0 0 0 0 0 0 0 0
0 0 1 0 0 0 0 1 1 1 1 1 0 0 0 0 0 0 0 0 0 0 0 0 0 0 0 0 0 0 0 0 0 0 0 0 0 0 0 0 0 0 0 0
Wind_Speed
4 4 2 3 4 5 6 9 8 8 8 8 8 9 9 9 9 10 9 9 8 8 7 7 7 7 7 6 6 6 6 6 5 5 5 5 4 4 4 4 4 3 4 4
1 2 2 2 4 5 5 5 6 5 5 6 5 6 6 8 12 12 11 10 9 9 9 8 8 8 7 6 6 6 6 6 6 5 5 5 4 4 4 4 4 5 5 5
1 2 4 4 4 4 3 3 7 8 8 5 7 8 8 8 10 12 11 10 10 9 9 9 8 8 8 7 6 7 6 6 5 5 5 4 5 6 5 5 5 6 5 6
3 3 3 9 4 3 3 2 3 5 6 9 10 9 6 7 9 9 10 10 9 9 8 8 7 8 8 8 7 7 6 6 5 5 6 5 6 6 5 4 5 5 5 5
4 2 4 6 3 1 3 1 1 5 6 7 9 8 3 3 7 9 9 9 9 9 9 9 9 9 9 8 7 6 6 5 5 5 6 6 6 5 4 5 5 5 4 5
5 4 5 7 6 3 6 0 2 6 9 9 9 6 4 5 7 9 8 8 9 9 9 9 8 9 10 8 7 6 5 5 5 5 6 6 6 5 5 5 6 5 6 5
4 3 6 6 7 2 5 6 3 5 8 7 6 6 6 7 7 10 10 10 10 10 9 8 8 9 9 7 6 5 5 5 5 5 6 6 5 5 5 6 6 5 6 5
5 3 7 6 3 3 5 3 4 5 6 6 7 8 8 9 9 11 11 11 11 10 9 7 8 10 9 7 6 6 6 6 6 5 5 6 6 5 5 5 6 5 5 5
7 7 5 1 1 1 3 4 4 6 6 9 9 9 9 8 9 9 10 10 9 11 10 7 6 8 8 6 7 8 8 7 7 7 6 5 6 6 5 4 4 3 3 3
2 1 1 2 3 3 3 5 5 8 9 9 10 9 9 9 8 8 8 9 9 11 10 8 6 7 7 7 8 9 9 7 7 7 6 6 5 4 4 3 3 4 3 3
2 0 3 3 3 3 5 6 7 8 8 9 11 9 9 8 9 8 8 7 8 10 10 8 7 7 7 7 8 9 8 7 7 6 7 6 6 5 4 2 3 4 3 3
3 4 2 2 1 3 5 5 5 8 8 7 9 10 9 7 7 8 9 8 9 9 9 9 8 8 7 6 8 10 8 7 5 5 5 5 6 6 10 7 7 7 6 5
3 2 2 1 0 3 5 4 4 7 10 9 7 9 9 8 7 8 9 9 10 10 9 9 8 7 6 6 8 8 8 7 5 5 6 5 5 6 5 5 9 9 7 6
1 3 3 1 1 3 6 6 6 7 8 8 8 8 9 8 8 9 9 8 9 10 9 8 8 7 6 6 7 8 7 7 7 5 5 5 5 4 4 5 3 3 4 6
1 2 2 1 3 4 6 8 8 7 7 7 7 8 9 9 9 8 8 8 9 9 8 8 8 6 6 7 8 7 6 5 5 5 4 5 4 4 4 4 3 2 2 3
0 3 4 4 4 5 6 7 7 6 6 7 7 7 8 8 8 8 7 8 9 9 7 7 6 5 6 7 7 6 5 8 7 5 5 4 4 4 4 4 3 3 2 2
2 2 4 4 4 4 5 6 7 7 7 8 8 8 9 9 9 8 7 6 7 7 6 6 6 5 5 6 6 5 5 6 9 6 5 5 4 4 4 4 3 3 2 2
3 4 4 5 6 6 5 6 6 7 7 8 9 9 9 9 9 8 7 7 7 6 4 5 5 5 5 5 5 4 4 5 4 5 4 4 4 4 4 4 4 4 2 2
1 2 3 4 5 6 6 6 6 6 7 8 9 9 8 8 8 8 8 8 8 6 3 4 7 6 5 5 6 4 5 5 5 4 4 6 5 4 4 4 4 4 4 3
4 4 5 5 6 6 6 5 6 7 7 8 9 9 8 8 8 7 7 6 4 3 4 5 5 5 4 5 6 4 5 5 5 5 4 4 5 4 4 4 4 4 4 3
4 6 6 6 6 6 6 6 7 7 7 7 9 9 8 7 7 7 7 5 2 3 5 6 4 3 3 4 5 4 5 5 5 5 5 4 4 4 4 4 4 4 4 3
4 5 5 5 6 5 5 5 6 7 8 8 8 8 8 8 7 6 4 4 4 5 4 3 3 4 5 6 4 4 4 5 4 4 4 4 4 4 4 4 4 3 3 3
4 4 5 5 5 5 5 5 6 7 7 8 8 8 7 6 5 6 4 3 4 6 4 3 5 7 8 5 4 4 4 4 4 4 4 4 4 4 4 4 3 3 3 3
4 4 4 4 6 7 6 5 6 6 6 6 6 7 7 6 4 3 4 6 7 7 4 5 8 8 7 3 3 4 3 3 3 3 4 4 4 4 3 4 3 3 3 4
4 5 5 5 5 5 5 6 7 7 7 5 6 6 5 4 5 4 4 5 7 7 4 5 8 7 4 3 3 3 3 3 3 4 3 4 4 4 3 3 3 3 3 3
4 3 3 4 4 4 4 5 5 5 5 5 4 4 4 4 5 5 4 5 6 6 4 3 4 4 3 3 3 3 3 3 4 3 4 4 4 4 3 3 4 3 3 3
4 4 4 4 4 3 4 4 5 5 5 6 5 4 4 5 5 5 5 4 4 4 3 3 3 3 3 3 3 3 3 3 3 3 3 3 3 3 3 3 3 3 3 3
Wind_Direction
191 208 181 213 229 215 180 178 177 213 200 214 197 179 173 158 148 142 141 147 148 144 140 139 132 130 128 128 125 120 116 115 117 115 111 100 95 91 84 75 64 51 49 41
3 354 11 315 265 232 208 180 171 168 222 222 174 140 146 158 152 149 155 158 151 144 140 141 136 134 129 126 123 117 114 118 118 115 109 104 102 94 85 75 65 60 53 49
249 337 32 298 248 212 215 200 168 188 213 169 143 150 160 161 158 155 159 159 153 151 149 145 140 135 130 126 116 112 115 117 118 119 115 111 106 93 87 81 73 64 57 58
117 73 222 246 251 189 178 209 183 177 176 162 160 157 146 153 155 155 158 156 152 149 145 137 130 127 123 120 119 117 114 113 113 116 112 105 99 97 92 85 79 72 61 57
114 150 273 290 309 222 163 282 225 143 131 123 119 96 77 153 152 154 154 154 150 146 139 132 131 131 124 121 121 118 117 117 119 121 116 112 108 103 97 91 81 72 64 60
119 144 220 253 284 272 114 34 283 135 138 140 122 127 197 181 148 138 133 137 135 132 126 128 133 130 125 127 126 128 127 125 123 121 121 121 117 109 100 95 88 79 66 55
141 176 255 261 295 32 128 212 216 140 140 139 142 166 163 150 135 131 132 133 131 129 129 134 134 128 126 130 138 139 124 120 120 118 119 118 112 106 106 100 92 82 74 59
143 169 250 289 14 106 203 208 146 129 123 115 119 121 125 130 130 130 130 131 130 126 124 128 132 129 131 138 138 126 117 112 110 108 113 113 109 103 103 105 98 86 77 64
174 202 234 293 121 213 163 121 120 121 121 120 119 121 120 122 125 126 130 131 129 127 123 121 125 128 129 135 129 124 115 106 97 88 83 92 104 108 100 96 101 95 87 79
109 249 301 22 49 33 73 102 119 128 130 126 126 128 124 126 127 126 127 131 129 126 126 126 123 121 128 130 126 121 116 109 103 95 85 72 73 84 97 99 107 109 105 97
97 184 32 10 41 51 57 65 90 109 118 126 125 125 126 128 130 130 130 129 131 132 132 130 124 118 122 127 125 119 115 112 107 103 103 89 75 61 79 82 126 131 130 127
203 219 170 240 293 88 82 80 101 110 107 114 125 125 117 117 124 126 128 127 126 126 127 127 125 122 121 124 124 124 121 117 116 117 111 109 105 80 51 63 77 92 111 120
196 216 170 218 172 107 99 92 97 115 122 119 115 119 117 117 121 122 124 127 130 131 130 129 126 127 130 130 126 126 129 129 126 127 130 130 125 119 103 59 59 68 84 97
118 88 52 9 79 102 109 102 92 100 109 117 118 116 114 115 119 121 126 131 130 128 129 129 127 131 136 130 125 125 128 131 131 134 137 139 136 131 129 127 108 57 43 66
343 105 139 119 84 94 107 109 103 103 109 111 116 119 119 122 126 127 127 126 123 122 126 131 133 138 137 130 128 130 130 133 133 133 134 135 133 128 123 122 118 112 78 46
101 86 94 99 109 115 117 122 128 134 132 126 122 123 122 122 122 121 124 129 132 135 139 137 139 145 139 134 132 131 134 140 140 138 134 133 132 132 130 126 124 126 129 123
151 139 133 133 137 143 141 141 145 145 140 134 133 129 125 121 117 117 119 121 125 129 133 137 143 141 136 137 135 135 138 147 143 139 141 142 140 139 142 140 138 139 148 147
182 184 176 166 146 132 132 132 130 135 140 138 131 125 126 129 132 132 128 120 112 107 115 132 134 129 127 130 133 135 139 140 138 140 140 141 142 144 143 143 145 141 131 127
137 150 140 132 131 128 126 128 128 126 126 128 128 128 127 128 130 129 125 121 123 124 133 129 125 123 126 132 131 131 135 133 131 132 135 138 138 138 141 146 147 146 143 138
104 102 101 104 105 115 120 123 122 117 119 123 123 121 121 125 127 127 123 121 134 148 148 138 130 128 132 135 130 128 133 135 134 132 129 131 133 134 138 143 145 147 147 148
96 97 100 104 103 105 110 116 118 119 121 125 128 129 129 128 127 128 127 122 123 127 129 127 124 126 129 129 124 121 124 129 133 136 134 135 135 135 138 142 144 150 154 155
96 99 100 102 104 103 104 111 117 120 118 117 119 123 124 124 122 117 119 135 143 131 124 119 117 122 125 122 117 119 123 130 136 138 135 138 142 144 144 145 148 154 156 161
96 96 97 103 110 114 106 106 112 119 121 123 125 129 131 131 135 137 137 142 137 128 121 120 124 121 115 105 110 116 120 126 132 138 143 146 148 150 150 148 151 154 156 163
92 96 103 105 106 107 105 107 107 110 114 115 119 125 128 125 112 109 131 138 135 129 122 127 127 125 118 109 115 122 125 129 135 141 145 145 143 144 148 149 154 165 169 170
95 94 95 102 105 111 115 113 108 107 108 107 110 113 117 124 130 132 128 133 135 129 122 130 130 127 118 108 111 119 126 131 136 137 136 135 137 140 147 153 160 168 172 174
95 98 103 105 110 116 117 117 116 118 119 116 112 111 110 111 116 117 119 123 124 126 125 129 131 126 117 114 113 118 120 121 120 122 130 132 137 142 149 154 156 163 171 175
90 93 93 84 78 89 102 109 116 121 125 126 122 118 120 120 118 118 118 116 114 112 111 113 121 124 121 120 118 114 114 118 121 121 127 133 138 144 152 158 164 168 170 168